When you browse on this site, cookies collect data to enhance your experience and personalize the content and advertising you see.
Visit our Privacy Policy to learn more. By continuing to use the site, you agree to this use of cookies and data.
  • în România
  • Lista ţărilor
  • Pe 7 zile
  • Temperatura apei
  • Meteo pe hartă
  • Widget-uri
  • user-avatar
    Intrare

    Meteo pe oră la Manaus

    Astăzi, 23 Februarie, Duminică

    Timp Temperatura Precipitaţii Vânt Presiune Umiditate
    00:00 +27°C° 0.1 mm 1 m/s 754 mmHg 90%
    01:00 +27°C° 0.1 mm 1 m/s 753 mmHg 90%
    02:00 +27°C° 0.1 mm 1 m/s 753 mmHg 91%
    03:00 +27°C° 0.1 mm 2 m/s 753 mmHg 91%
    04:00 +27°C° 0.1 mm 2 m/s 753 mmHg 92%
    05:00 +26°C° 0.1 mm 2 m/s 753 mmHg 92%
    06:00 +27°C° 0.1 mm 2 m/s 754 mmHg 92%
    07:00 +27°C° 0.1 mm 2 m/s 754 mmHg 91%
    08:00 +27°C° 0.1 mm 2 m/s 755 mmHg 90%
    09:00 +29°C° 0.1 mm 2 m/s 755 mmHg 84%
    10:00 +30°C° 0.1 mm 3 m/s 755 mmHg 79%
    11:00 +31°C° 0.1 mm 3 m/s 756 mmHg 73%
    12:00 +31°C° 0 mm 3 m/s 755 mmHg 70%
    13:00 +33°C° 0 mm 3 m/s 754 mmHg 68%
    14:00 +33°C° 0 mm 4 m/s 753 mmHg 65%
    15:00 +31°C° 0 mm 3 m/s 753 mmHg 70%
    16:00 +30°C° 0 mm 3 m/s 753 mmHg 74%
    17:00 +29°C° 0 mm 3 m/s 752 mmHg 78%
    18:00 +29°C° 0 mm 3 m/s 753 mmHg 81%
    19:00 +28°C° 0 mm 2 m/s 753 mmHg 84%
    20:00 +27°C° 0 mm 2 m/s 753 mmHg 87%
    21:00 +27°C° 0 mm 1 m/s 754 mmHg 89%
    22:00 +26°C° 0 mm 1 m/s 754 mmHg 90%
    23:00 +26°C° 0 mm 1 m/s 754 mmHg 92%

    Mâine, 24 Februarie, Luni

    Timp Temperatura Precipitaţii Vânt Presiune Umiditate
    00:00 +26°C° 0 mm 1 m/s 754 mmHg 92%
    01:00 +26°C° 0 mm 1 m/s 753 mmHg 92%
    02:00 +26°C° 0 mm 1 m/s 753 mmHg 92%
    03:00 +26°C° 0 mm 1 m/s 753 mmHg 93%
    04:00 +26°C° 0 mm 1 m/s 753 mmHg 94%
    05:00 +25°C° 0 mm 1 m/s 753 mmHg 95%
    06:00 +26°C° 0 mm 1 m/s 753 mmHg 92%
    07:00 +27°C° 0 mm 1 m/s 754 mmHg 89%
    08:00 +27°C° 0 mm 1 m/s 755 mmHg 86%
    09:00 +29°C° 0 mm 1 m/s 755 mmHg 78%
    10:00 +31°C° 0 mm 1 m/s 755 mmHg 71%
    11:00 +32°C° 0 mm 1 m/s 755 mmHg 64%
    12:00 +33°C° 0.2 mm 1 m/s 754 mmHg 62%
    13:00 +34°C° 0.2 mm 2 m/s 753 mmHg 61%
    14:00 +35°C° 0.2 mm 2 m/s 752 mmHg 60%
    15:00 +33°C° 0.5 mm 1 m/s 751 mmHg 65%
    16:00 +33°C° 0.5 mm 1 m/s 751 mmHg 69%
    17:00 +32°C° 0.5 mm 1 m/s 750 mmHg 74%
    18:00 +30°C° 1.2 mm 1 m/s 751 mmHg 80%
    19:00 +29°C° 1.2 mm 1 m/s 751 mmHg 87%
    20:00 +27°C° 1.2 mm 1 m/s 752 mmHg 93%
    21:00 +27°C° 1.7 mm 1 m/s 752 mmHg 93%
    22:00 +27°C° 1.7 mm 1 m/s 753 mmHg 94%
    23:00 +27°C° 1.7 mm 1 m/s 753 mmHg 94%

    Poimâine, 25 Februarie, Marţi

    Timp Temperatura Precipitaţii Vânt Presiune Umiditate
    00:00 +27°C° 0.6 mm 1 m/s 753 mmHg 94%
    01:00 +25°C° 0.6 mm 0 m/s 753 mmHg 94%
    02:00 +24°C° 0.6 mm 0 m/s 752 mmHg 94%
    03:00 +24°C° 0.8 mm 0 m/s 752 mmHg 95%
    04:00 +24°C° 0.8 mm 0 m/s 752 mmHg 95%
    05:00 +26°C° 0.8 mm 1 m/s 752 mmHg 96%
    06:00 +27°C° 1.2 mm 1 m/s 753 mmHg 95%
    07:00 +27°C° 1.2 mm 1 m/s 753 mmHg 94%
    08:00 +27°C° 1.2 mm 1 m/s 754 mmHg 94%
    09:00 +28°C° 1.9 mm 1 m/s 754 mmHg 93%
    10:00 +28°C° 1.9 mm 1 m/s 754 mmHg 93%
    11:00 +28°C° 1.9 mm 1 m/s 755 mmHg 92%
    12:00 +28°C° 0.7 mm 1 m/s 754 mmHg 92%
    13:00 +28°C° 0.7 mm 1 m/s 753 mmHg 92%
    14:00 +26°C° 0.7 mm 0 m/s 752 mmHg 92%
    15:00 +26°C° 0 mm 0 m/s 752 mmHg 91%
    16:00 +26°C° 0 mm 0 m/s 751 mmHg 90%
    17:00 +26°C° 0 mm 0 m/s 751 mmHg 90%
    18:00 +26°C° 0 mm 0 m/s 751 mmHg 91%
    19:00 +25°C° 0 mm 0 m/s 752 mmHg 92%
    20:00 +25°C° 0 mm 0 m/s 752 mmHg 94%
    21:00 +25°C° 0 mm 0 m/s 752 mmHg 94%
    22:00 +25°C° 0 mm 0 m/s 753 mmHg 94%
    23:00 +25°C° 0 mm 0 m/s 753 mmHg 95%

    26 Februarie, Miercuri

    Timp Temperatura Precipitaţii Vânt Presiune Umiditate
    00:00 +25°C° 0 mm 0 m/s 753 mmHg 95%
    01:00 +24°C° 0 mm 0 m/s 752 mmHg 95%
    02:00 +24°C° 0 mm 0 m/s 752 mmHg 96%
    03:00 +24°C° 0 mm 0 m/s 752 mmHg 96%
    04:00 +26°C° 0 mm 1 m/s 752 mmHg 96%
    05:00 +26°C° 0 mm 1 m/s 752 mmHg 96%
    06:00 +27°C° 0.7 mm 1 m/s 752 mmHg 96%
    07:00 +27°C° 0.7 mm 1 m/s 753 mmHg 95%
    08:00 +27°C° 0.7 mm 1 m/s 754 mmHg 95%
    09:00 +28°C° 1.2 mm 1 m/s 754 mmHg 92%
    10:00 +29°C° 1.2 mm 2 m/s 754 mmHg 89%
    11:00 +30°C° 1.2 mm 2 m/s 755 mmHg 86%
    12:00 +30°C° 0.4 mm 2 m/s 754 mmHg 82%
    13:00 +31°C° 0.4 mm 3 m/s 753 mmHg 77%
    14:00 +31°C° 0.4 mm 3 m/s 753 mmHg 72%
    15:00 +31°C° 0 mm 2 m/s 752 mmHg 72%
    16:00 +31°C° 0 mm 2 m/s 752 mmHg 72%
    17:00 +31°C° 0 mm 1 m/s 751 mmHg 73%
    18:00 +30°C° 0 mm 1 m/s 752 mmHg 77%
    19:00 +29°C° 0 mm 1 m/s 752 mmHg 81%
    20:00 +27°C° 0 mm 1 m/s 752 mmHg 85%
    21:00 +27°C° 0 mm 1 m/s 753 mmHg 87%
    22:00 +27°C° 0 mm 1 m/s 753 mmHg 89%
    23:00 +27°C° 0 mm 1 m/s 753 mmHg 90%

    27 Februarie, Joi

    Timp Temperatura Precipitaţii Vânt Presiune Umiditate
    00:00 +27°C° 0 mm 1 m/s 753 mmHg 91%
    01:00 +26°C° 0 mm 1 m/s 752 mmHg 91%
    02:00 +26°C° 0 mm 1 m/s 752 mmHg 91%
    03:00 +26°C° 0 mm 1 m/s 752 mmHg 91%
    04:00 +26°C° 0 mm 1 m/s 752 mmHg 92%
    05:00 +24°C° 0 mm 0 m/s 752 mmHg 92%
    06:00 +27°C° 0 mm 1 m/s 752 mmHg 89%
    07:00 +27°C° 0 mm 1 m/s 753 mmHg 86%
    08:00 +28°C° 0 mm 1 m/s 754 mmHg 83%
    09:00 +30°C° 0 mm 1 m/s 754 mmHg 75%
    10:00 +32°C° 0 mm 2 m/s 754 mmHg 67%
    11:00 +34°C° 0 mm 2 m/s 754 mmHg 59%
    12:00 +35°C° 0 mm 2 m/s 753 mmHg 56%
    13:00 +36°C° 0 mm 2 m/s 752 mmHg 52%
    14:00 +36°C° 0 mm 1 m/s 751 mmHg 48%
    15:00 +35°C° 0 mm 1 m/s 751 mmHg 52%
    16:00 +35°C° 0 mm 1 m/s 750 mmHg 57%
    17:00 +32°C° 0 mm 0 m/s 750 mmHg 61%
    18:00 +32°C° 0 mm 1 m/s 751 mmHg 66%
    19:00 +31°C° 0 mm 1 m/s 751 mmHg 70%
    20:00 +29°C° 0 mm 1 m/s 752 mmHg 75%
    21:00 +29°C° 0 mm 1 m/s 752 mmHg 76%
    22:00 +28°C° 0 mm 1 m/s 753 mmHg 77%
    23:00 +28°C° 0 mm 1 m/s 753 mmHg 79%

    28 Februarie, Vineri

    Timp Temperatura Precipitaţii Vânt Presiune Umiditate
    00:00 +28°C° 0 mm 1 m/s 752 mmHg 80%
    01:00 +28°C° 0 mm 1 m/s 752 mmHg 82%
    02:00 +25°C° 0 mm 0 m/s 751 mmHg 83%
    03:00 +27°C° 0 mm 1 m/s 751 mmHg 83%
    04:00 +27°C° 0 mm 1 m/s 751 mmHg 83%
    05:00 +27°C° 0 mm 1 m/s 751 mmHg 83%
    06:00 +28°C° 0 mm 1 m/s 752 mmHg 81%
    07:00 +29°C° 0 mm 1 m/s 753 mmHg 79%
    08:00 +29°C° 0 mm 1 m/s 754 mmHg 77%
    09:00 +31°C° 0.2 mm 1 m/s 754 mmHg 69%
    10:00 +33°C° 0.2 mm 1 m/s 754 mmHg 62%
    11:00 +35°C° 0.2 mm 2 m/s 754 mmHg 55%
    12:00 +36°C° 0.1 mm 2 m/s 753 mmHg 51%
    13:00 +37°C° 0.1 mm 2 m/s 753 mmHg 47%
    14:00 +37°C° 0.1 mm 1 m/s 752 mmHg 44%
    15:00 +35°C° 0.1 mm 1 m/s 751 mmHg 52%
    16:00 +34°C° 0.1 mm 1 m/s 751 mmHg 60%
    17:00 +32°C° 0.1 mm 1 m/s 751 mmHg 68%
    18:00 +31°C° 0.2 mm 1 m/s 751 mmHg 73%
    19:00 +30°C° 0.2 mm 1 m/s 752 mmHg 78%
    20:00 +28°C° 0.2 mm 1 m/s 753 mmHg 83%
    21:00 +28°C° 0.2 mm 1 m/s 753 mmHg 86%
    22:00 +27°C° 0.2 mm 1 m/s 753 mmHg 90%
    23:00 +27°C° 0.2 mm 1 m/s 754 mmHg 94%
    Arată mai mult